Flag for Japan Weather past 2 weeks in Yokosuka, Japan

Now
46 °F

Passing clouds.


Feels Like: 40 °F
Forecast: 43 / 52 °F
Wind: 15 mph from North

Location: Tokyo International Airport

Current Time: Mar 5, 2015 at 7:49:41 AM

Latest Report: Mar 5, 2015 at 7:00 AM


Visibility: N/A

Pressure: 29.92 "Hg

Humidity: 43%

Dew point: 25 °F

Location of YokosukaLocation

Historic Weather in Yokosuka — Graph

°F

Yokosuka temperature yesterday

Maximum temperature yesterday: 61 °F (at 5:00 PM)
Minimum temperature yesterday: 39 °F (at 3:30 AM)
Average temperature yesterday: 49 °F

Past Weeks' High & Low Weather Summary

 TemperatureHumidityPressure
High66 °F (Feb 23, 2:30 PM)100% (Feb 22, 11:47 PM)30.39 "Hg (Feb 22, 11:47 PM)
Low37 °F (Feb 19, 3:00 AM)26% (Mar 2, 1:30 PM)29.45 "Hg (Mar 1, 8:50 PM)
Average47 °F70%29.96 "Hg
* Reported Feb 18 6:00 AM — Mar 5 6:00 AM, Yokosuka, Weather by CustomWeather, © 2015

Note: Actual official high and low records may vary slightly from our data, if they occured in-between our weather recording intervals... More about our weather records

Advertising

Yokosuka weather history for previous 24 hours

 ConditionsComfort  
Time TempWeatherWind HumidityBarometerVisibility
6:00 AM
Thu, Mar 5
45 °FPassing clouds.15 mph42%29.89 "HgN/A
5:30 AM46 °FPassing clouds.10 mph43%29.89 "HgN/A
5:00 AM46 °FPassing clouds.16 mph43%29.86 "HgN/A
4:30 AM48 °FPassing clouds.10 mph46%29.83 "HgN/A
4:00 AM46 °FPassing clouds.6 mph82%29.83 "HgN/A
3:30 AM46 °FPassing clouds.9 mph82%29.80 "HgN/A
3:00 AM48 °FPassing clouds.8 mph82%29.80 "HgN/A
2:30 AM48 °FPassing clouds.12 mph82%29.80 "HgN/A
2:00 AM48 °FPassing clouds.12 mph82%29.77 "HgN/A
1:30 AM50 °FPassing clouds.15 mph62%29.77 "HgN/A
1:00 AM52 °FPassing clouds.15 mph47%29.77 "HgN/A
12:30 AM52 °FPassing clouds.12 mph44%29.77 "HgN/A
12:00 AM52 °FPassing clouds.10 mph41%29.74 "HgN/A
11:30 PM
Wed, Mar 4
52 °FPassing clouds.16 mph47%29.74 "HgN/A
11:00 PM54 °FPassing clouds.13 mph54%29.74 "HgN/A
10:30 PM52 °FPassing clouds.7 mph58%29.71 "HgN/A
10:00 PM52 °FPassing clouds.7 mph58%29.71 "HgN/A
9:30 PM55 °FPassing clouds.12 mph55%29.68 "HgN/A
9:00 PM55 °FPassing clouds.9 mph51%29.68 "HgN/A
8:30 PM57 °FPassing clouds.9 mph48%29.68 "HgN/A
8:00 PM57 °FPassing clouds.12 mph48%29.65 "HgN/A
7:30 PM57 °FPassing clouds.12 mph51%29.65 "HgN/A
7:00 PM57 °FPassing clouds.14 mph48%29.62 "HgN/A
6:30 PM59 °FPassing clouds.15 mph45%29.62 "HgN/A
6:00 PM59 °FPassing clouds.18 mph45%29.62 "HgN/A
5:30 PM61 °FPartly sunny.16 mph45%29.59 "HgN/A
5:00 PM61 °FPartly sunny.10 mph48%29.59 "HgN/A
4:30 PM59 °FPartly sunny.9 mph63%29.59 "HgN/A
4:00 PM55 °FScattered clouds.7 mph77%29.59 "HgN/A
3:30 PM55 °FScattered clouds.6 mph77%29.59 "HgN/A
3:00 PM55 °FPartly sunny.6 mph77%29.56 "HgN/A
2:30 PM54 °FPartly sunny.9 mph77%29.59 "HgN/A
2:00 PM54 °FPartly sunny.7 mph77%29.59 "HgN/A
1:30 PM52 °FPartly sunny.6 mph82%29.59 "HgN/A
1:00 PM52 °FPartly sunny.7 mph77%29.59 "HgN/A
12:30 PM50 °FScattered clouds.6 mph82%29.59 "HgN/A
12:00 PM50 °FScattered clouds.7 mph82%29.59 "HgN/A
11:30 AM52 °FPartly sunny.9 mph77%29.59 "HgN/A
11:00 AM50 °FPartly sunny.3 mph76%29.62 "HgN/A
10:30 AM50 °FPartly sunny.5 mph76%29.62 "HgN/A
10:00 AM48 °FPartly sunny.3 mph76%29.59 "HgN/A
9:30 AM46 °FPartly sunny.5 mph82%29.59 "HgN/A
9:00 AM45 °FPartly sunny.7 mph87%29.59 "HgN/A
8:30 AM43 °FPartly sunny.7 mph93%29.59 "HgN/A
8:00 AM43 °FLight rain. Broken clouds.9 mph87%29.59 "HgN/A
7:30 AM41 °FLight rain. Broken clouds.15 mph93%29.56 "Hg5 mi
7:00 AM39 °FLight rain. Partly sunny.14 mph93%29.56 "Hg4 mi
Weather by CustomWeather, © 2015

See weather overviewHow to use our weather pages